FW9289 Weather Reports


Display with metric or nautical units.
time (UTC)temp
F
wind
direction
speed
MPH
gust
MPH
rain 1hr
in
rain 24hr
in
rain mn
in
humidity
%
barometer
mb
20260505053542 59 0 0.0 0.0 0.00 0.00 0.00 82 1011.7
20260505053102 60 0 0.0 2.0 0.00 0.00 0.00 82 1011.7
20260505052545 60 0 0.0 2.0 0.00 0.00 0.00 81 1011.7
20260505052042 60 0 0.0 4.0 0.00 0.00 0.00 80 1011.5
20260505051554 60 188 0.0 4.0 0.00 0.00 0.00 80 1011.5
20260505051043 61 188 1.0 6.0 0.00 0.00 0.00 79 1011.4
20260505050542 61 61 0.0 6.0 0.00 0.00 0.00 79 1011.4
20260505041548 59 0 0.0 2.0 0.00 0.00 0.00 81 1010.6
20260505041044 59 40 0.0 0.0 0.00 0.00 0.00 81 1010.5
20260505040541 60 0 0.0 2.0 0.00 0.00 0.00 80 1010.6
20260505040049 60 0 0.0 2.0 0.00 0.00 0.00 79 1010.4
20260505035541 60 0 0.0 2.0 0.00 0.00 0.00 80 1010.5
20260505035046 60 0 0.0 3.0 0.00 0.00 0.00 80 1010.4
20260505034548 60 0 0.0 3.0 0.00 0.00 0.00 79 1010.4
20260505034043 61 0 0.0 2.0 0.00 0.00 0.00 78 1010.3
20260505033547 61 0 0.0 0.0 0.00 0.00 0.00 79 1010.2
20260505033105 61 0 0.0 0.0 0.00 0.00 0.00 78 1010.2
20260505032546 62 0 0.0 0.0 0.00 0.00 0.00 78 1010.1
20260505032042 62 0 0.0 0.0 0.00 0.00 0.00 77 1010.1
20260505031549 62 0 0.0 0.0 0.00 0.00 0.00 76 1010.0
20260505031046 63 0 0.0 0.0 0.00 0.00 0.00 75 1010.0
20260505030542 63 0 0.0 0.0 0.00 0.00 0.00 74 1010.0
20260505030046 63 0 0.0 0.0 0.00 0.00 0.00 74 1010.0
20260505025542 63 0 0.0 0.0 0.00 0.00 0.00 74 1010.0
20260505025041 64 0 0.0 0.0 0.00 0.00 0.00 72 1009.9
20260505024547 64 0 0.0 0.0 0.00 0.00 0.00 71 1009.9
20260505024041 65 0 0.0 0.0 0.00 0.00 0.00 70 1009.9
20260505023541 65 0 0.0 0.0 0.00 0.00 0.00 69 1009.9
20260505023059 66 0 0.0 0.0 0.00 0.00 0.00 68 1009.8
20260505022544 66 0 0.0 0.0 0.00 0.00 0.00 66 1009.8
20260505022047 67 0 0.0 0.0 0.00 0.00 0.00 65 1009.9
20260505021549 68 0 0.0 0.0 0.00 0.00 0.00 64 1009.8
20260505021041 69 0 0.0 0.0 0.00 0.00 0.00 62 1009.9
20260505020542 70 0 0.0 0.0 0.00 0.00 0.00 59 1009.9
20260505020051 70 0 0.0 4.0 0.00 0.00 0.00 56 1009.9
20260505015541 71 0 0.0 4.0 0.00 0.00 0.00 54 1009.9
20260505015045 71 196 0.0 0.0 0.00 0.00 0.00 45 1009.8
20260505014548 72 0 0.0 3.0 0.00 0.00 0.00 56 1009.8
20260505014044 72 0 0.0 4.0 0.00 0.00 0.00 52 1009.8
20260505013542 74 0 1.0 4.0 0.00 0.00 0.00 47 1009.6
20260505013049 76 0 1.0 4.0 0.00 0.00 0.00 44 1009.7
20260505012542 75 127 1.0 4.0 0.00 0.00 0.00 43 1009.7
20260505012043 74 301 1.0 5.0 0.00 0.00 0.00 48 1009.7
20260505011559 76 0 0.0 5.0 0.00 0.00 0.00 43 1009.8
20260505011043 76 120 1.0 3.0 0.00 0.00 0.00 39 1009.7
20260505010543 75 132 0.0 5.0 0.00 0.00 0.00 40 1009.8
20260505010054 76 66 0.0 5.0 0.00 0.00 0.00 42 1009.8
20260505005544 78 0 1.0 5.0 0.00 0.00 0.00 38 1009.9
20260505005043 78 134 0.0 5.0 0.00 0.00 0.00 39 1009.8
20260505004559 77 245 1.0 3.0 0.00 0.00 0.00 40 1009.8
20260505004042 78 0 1.0 5.0 0.00 0.00 0.00 40 1009.7
20260505003542 79 0 0.0 6.0 0.00 0.00 0.00 36 1009.8
20260505003048 79 88 1.0 7.0 0.00 0.00 0.00 36 1009.7
20260505002544 79 228 1.0 7.0 0.00 0.00 0.00 35 1009.7
20260505002043 79 259 2.0 6.0 0.00 0.00 0.00 34 1009.6
20260505001552 79 0 1.0 7.0 0.00 0.00 0.00 35 1009.6
20260505001043 79 242 2.0 7.0 0.00 0.00 0.00 34 1009.6
20260505000546 80 227 2.0 5.0 0.00 0.00 0.00 34 1009.6
20260505000050 80 0 2.0 7.0 0.00 0.00 0.00 34 1009.6
20260504235542 80 117 1.0 7.0 0.00 0.00 0.00 34 1009.6
20260504235044 81 109 2.0 7.0 0.00 0.00 0.00 32 1009.7
20260504234614 80 153 2.0 7.0 0.00 0.00 0.00 33 1009.7
20260504234041 80 219 3.0 7.0 0.00 0.00 0.00 33 1009.7
20260504233545 81 142 2.0 6.0 0.00 0.00 0.00 35 1009.7
20260504233053 81 33 0.0 9.0 0.00 0.00 0.00 33 1009.8
20260504232544 80 58 5.0 10.0 0.00 0.00 0.00 33 1009.6
20260504232044 80 155 1.0 10.0 0.00 0.00 0.00 33 1009.7
20260504231554 81 44 2.0 7.0 0.00 0.00 0.00 33 1009.8
20260504231043 81 0 3.0 7.0 0.00 0.00 0.00 32 1009.8
20260504230544 82 210 1.0 10.0 0.00 0.00 0.00 34 1009.7
20260504230046 81 76 2.0 10.0 0.00 0.00 0.00 36 1009.8
20260504225544 80 240 2.0 10.0 0.00 0.00 0.00 33 1009.9
20260504225047 80 111 3.0 8.0 0.00 0.00 0.00 33 1009.9
20260504224555 81 280 2.0 9.0 0.00 0.00 0.00 32 1010.0
20260504224043 81 82 1.0 9.0 0.00 0.00 0.00 32 1010.2
20260504223543 81 246 2.0 8.0 0.00 0.00 0.00 37 1010.2
20260504223051 81 105 2.0 8.0 0.00 0.00 0.00 34 1010.3
20260504222546 81 121 2.0 9.0 0.00 0.00 0.00 34 1010.3
20260504222044 81 121 3.0 10.0 0.00 0.00 0.00 33 1010.3
20260504221601 81 196 1.0 10.0 0.00 0.00 0.00 34 1010.4
20260504221045 81 90 2.0 9.0 0.00 0.00 0.00 32 1010.4
20260504220544 80 33 2.0 9.0 0.00 0.00 0.00 34 1010.4
20260504220054 80 355 2.0 9.0 0.00 0.00 0.00 36 1010.5
20260504215546 81 142 3.0 10.0 0.00 0.00 0.00 33 1010.5
20260504215047 81 13 2.0 10.0 0.00 0.00 0.00 32 1010.6
20260504214551 80 115 4.0 10.0 0.00 0.00 0.00 32 1010.4
20260504214041 81 159 2.0 9.0 0.00 0.00 0.00 33 1010.4
20260504213545 81 331 3.0 8.0 0.00 0.00 0.00 33 1010.6
20260504213101 82 102 1.0 9.0 0.00 0.00 0.00 31 1010.5
20260504212545 81 129 2.0 9.0 0.00 0.00 0.00 36 1010.6
20260504212042 81 138 2.0 8.0 0.00 0.00 0.00 32 1010.5
20260504211547 81 82 2.0 8.0 0.00 0.00 0.00 33 1010.7
20260504211045 81 77 3.0 12.0 0.00 0.00 0.00 33 1010.5
20260504210545 80 121 2.0 12.0 0.00 0.00 0.00 34 1010.7
20260504210056 80 179 4.0 12.0 0.00 0.00 0.00 32 1010.7
20260504205549 80 153 2.0 11.0 0.00 0.00 0.00 31 1010.7
20260504205048 80 183 2.0 11.0 0.00 0.00 0.00 33 1010.7
20260504204634 80 42 4.0 11.0 0.00 0.00 0.00 33 1010.7
20260504204041 81 0 1.0 8.0 0.00 0.00 0.00 35 1010.7
20260504203544 80 228 2.0 6.0 0.00 0.00 0.00 32 1010.7
20260504203048 81 94 1.0 10.0 0.00 0.00 0.00 37 1010.7
20260504202542 79 86 3.0 10.0 0.00 0.00 0.00 33 1010.6
20260504202044 80 0 2.0 8.0 0.00 0.00 0.00 34 1010.7
20260504201551 79 113 2.0 7.0 0.00 0.00 0.00 35 1010.7
20260504201041 79 277 2.0 8.0 0.00 0.00 0.00 36 1010.7
20260504200545 79 198 1.0 8.0 0.00 0.00 0.00 35 1010.8
20260504200054 80 274 2.0 7.0 0.00 0.00 0.00 36 1010.9
20260504195542 79 84 1.0 10.0 0.00 0.00 0.00 39 1011.0
20260504195049 78 219 0.0 10.0 0.00 0.00 0.00 38 1011.0
20260504194555 78 87 2.0 10.0 0.00 0.00 0.00 36 1011.0
20260504194046 78 0 3.0 9.0 0.00 0.00 0.00 38 1011.0
20260504193542 78 304 2.0 10.0 0.00 0.00 0.00 37 1011.0
20260504193049 78 90 2.0 10.0 0.00 0.00 0.00 36 1011.0
20260504192541 79 90 1.0 8.0 0.00 0.00 0.00 35 1011.1
20260504192041 78 54 1.0 6.0 0.00 0.00 0.00 36 1011.2
20260504191549 77 299 2.0 9.0 0.00 0.00 0.00 36 1011.2
20260504191041 77 162 3.0 9.0 0.00 0.00 0.00 36 1011.3
20260504190544 77 73 2.0 6.0 0.00 0.00 0.00 38 1011.3
20260504190056 78 355 0.0 5.0 0.00 0.00 0.00 39 1011.3
20260504185545 77 172 1.0 6.0 0.00 0.00 0.00 38 1011.3
20260504185042 77 75 1.0 9.0 0.00 0.00 0.00 40 1011.3
20260504184603 76 101 4.0 9.0 0.00 0.00 0.00 37 1011.3
20260504184042 76 80 2.0 6.0 0.00 0.00 0.00 39 1011.4
20260504183545 76 5 1.0 3.0 0.00 0.00 0.00 40 1011.4
20260504183058 76 101 0.0 4.0 0.00 0.00 0.00 42 1011.4
20260504182546 76 86 1.0 4.0 0.00 0.00 0.00 44 1011.5
20260504182044 76 103 0.0 2.0 0.00 0.00 0.00 43 1011.5
20260504181551 76 0 0.0 3.0 0.00 0.00 0.00 47 1011.5
20260504181045 76 0 1.0 4.0 0.00 0.00 0.00 45 1011.5
20260504180545 75 0 1.0 4.0 0.00 0.00 0.00 45 1011.5
20260504180048 74 126 1.0 4.0 0.00 0.00 0.00 44 1011.4
20260504175545 74 109 1.0 4.0 0.00 0.00 0.00 44 1011.4
20260504175046 75 262 0.0 4.0 0.00 0.00 0.00 45 1011.3
20260504174551 74 73 2.0 4.0 0.00 0.00 0.00 49 1011.4
20260504174042 74 155 1.0 4.0 0.00 0.00 0.00 45 1011.4
20260504173541 74 226 1.0 10.0 0.00 0.00 0.00 46 1011.4
20260504173052 73 88 2.0 10.0 0.00 0.00 0.00 47 1011.5
20260504172541 73 232 1.0 4.0 0.00 0.00 0.00 47 1011.4
20260504172045 73 111 1.0 3.0 0.00 0.00 0.00 48 1011.5
20260504171549 72 0 1.0 4.0 0.00 0.00 0.00 47 1011.5
20260504171046 72 0 1.0 4.0 0.00 0.00 0.00 47 1011.5
20260504170545 71 272 0.0 6.0 0.00 0.00 0.00 51 1011.6
20260504151042 53 0 0.0 0.0 0.00 0.00 0.00 93 1011.3
20260504150541 52 0 0.0 0.0 0.00 0.00 0.00 94 1011.2
20260504141045 49 0 0.0 0.0 0.00 0.00 0.00 96 1010.9
20260504140544 48 0 0.0 0.0 0.00 0.00 0.00 96 1011.0
20260504130544 47 0 0.0 0.0 0.00 0.00 0.00 96 1010.7
20260504110543 48 0 0.0 0.0 0.00 0.00 0.00 95 1010.5
20260504100544 49 0 0.0 0.0 0.00 0.00 0.00 94 1010.5
20260504081553 51 0 0.0 0.0 0.00 0.00 0.00 92 1010.7
20260504081044 51 0 0.0 0.0 0.00 0.00 0.00 92 1010.7
20260504080542 51 0 0.0 0.0 0.00 0.00 0.00 92 1010.8